Regional Weather Roundup
Issued by NWS

Home | Current Version | Previous Version | Graphics & Text | Print | Product List | Glossary On
Versions: 1 2 3 4 5 6 7 8 9 10 11 12 13 14 15 16 17 18 19 20 21 22 23 24 25 26 27 28 29 30 31 32 33 34 35 36 37 38 39 40 41 42 43 44 45 46 47 48 49 50
000
ASUS43 KMPX 061101
RWRMN
WEATHER ROUNDUP FOR MINNESOTA
NATIONAL WEATHER SERVICE TWIN CITIES/CHANHASSEN MN
600 AM CDT WED MAY 06 2015


NOTE: "FAIR" INDICATES FEW OR NO CLOUDS BELOW 12,000 FEET WITH NO
SIGNIFICANT WEATHER AND/OR OBSTRUCTIONS TO VISIBILITY. N/A MEANS
CURRENT SKY AND/OR WEATHER CONDITIONS ARE NOT AVAILABLE.

MNZ060>063-068>070-061200-
   Twin Cities Metro

CITY           SKY/WX    TMP DP  RH WIND       PRES   REMARKS
TWIN CITIES    CLOUDY    56  54  93 SE9       30.07S FOG
ST PAUL        CLOUDY    55  54  96 E8        30.08S FOG
CRYSTAL        CLOUDY    57  54  89 E8        30.05S FOG
BLAINE         CLOUDY    55  55 100 SE7       30.07S FOG
LAKEVILLE      FOG       54  54 100 SE7       30.06S VSB 1
EDEN PRAIRIE   CLOUDY    55  54  96 E12       30.05S FOG
SOUTH ST PAUL  CLOUDY    56  54  93 SE6       30.07S FOG
LAKE ELMO      CLOUDY    54  54 100 SE6       30.09S FOG
$$
MNZ001>005-007-008-013>017-022>024-027-028-061200-
   Northwest Minnesota

CITY           SKY/WX    TMP DP  RH WIND       PRES   REMARKS
BEMIDJI        CLOUDY    56  47  71 SE8       30.01F
HALLOCK        PTCLDY    57  48  72 SE13      29.93S
ROSEAU         CLEAR     54  43  66 SE7       29.98F
WARROAD        CLEAR     52  45  76 E6        30.00F
THIEF RVR FALL CLOUDY    57  45  62 SE10      29.97S
CROOKSTON      CLOUDY    61  54  77 S12       29.95F
FOSSTON        CLOUDY    59  48  67 SE6       29.97F
DETROIT LAKES  CLOUDY    57  54  88 SE8       29.99S
MOORHEAD       CLOUDY    57  55  94 S16       29.94F
PARK RAPIDS    CLOUDY    58  51  78 SE14      30.01S
MAHNOMEN       CLOUDY    59  53  81 SE8       29.96F
$$
MNZ006-009>011-018-025>026-061200-
   North Central Minnesota

CITY           SKY/WX    TMP DP  RH WIND       PRES   REMARKS
BAUDETTE       CLEAR     49  32  52 SE9       30.02F
FLAG ISLAND    CLEAR     54  39  58 SE6       30.00S
INTL FALLS     CLEAR     43  30  60 SE6       30.07S
WASKISH        MOCLDY    48  36  61 CALM      30.02F
BIG FORK       PTCLDY    52  34  50 SE3       30.06F
LONGVILLE      CLOUDY    55  48  76 SE3       30.04S
GRAND RAPIDS   CLOUDY    50  37  62 SE6       30.07S
CRANE LAKE     CLOUDY    43  30  61 CALM      30.11F
ORR            PTCLDY    46  27  46 SE6       30.07S
COOK           PTCLDY    43  28  56 E3        30.10S
WALKER         CLOUDY    57  49  74 S7        30.02F
$$
MNZ012-019>021-037-061200-
   Northeast Minnesota

CITY           SKY/WX    TMP DP  RH WIND       PRES   REMARKS
DULUTH         LGT RAIN  48  35  60 SE9       30.11R
ELY            PTCLDY    39  28  65 CALM      30.12F
HIBBING        CLOUDY    50  31  48 SE7       30.09S
EVELETH        MOCLDY    45  30  57 NE3       30.11F
DULUTH HARBOR  RAIN      41  37  87 NE9       30.14S
TWO HARBORS    CLOUDY    54  34  47 NE3       30.11F
SILVER BAY     CLOUDY    48  30  49 N3        30.13S
GRAND MARAIS     N/A     37  30  75 CALM      30.17S
G MARAIS ARPRT CLEAR     34  25  69 SE3       30.17F
$$
MNZ029>031-032-039>041-046>048-054>057-064-061200-
   West Central Minnesota

CITY           SKY/WX    TMP DP  RH WIND       PRES   REMARKS
FERGUS FALLS   CLOUDY    57  54  88 SE9       29.97S
WHEATON        CLOUDY    54  52  94 SE16      29.97F FOG
MORRIS         CLOUDY    55  54  94 SE15      29.97F FOG
ALEXANDRIA     FOG       54  53  97 SE16      30.01S VSB 1
ELBOW LAKE     CLOUDY    55  54  94 SE16G23   29.98R
WADENA         CLOUDY    55  54  94 SE12      30.00S
GLENWOOD       CLOUDY    54  54 100 SE15      30.01S VSB 3/4
APPLETON       CLOUDY    57  54  88 SE13      29.97R FOG
BENSON         CLOUDY    55  54  94 S14       29.99R FOG
ORTONVILLE     CLOUDY    55  54  94 SE13G21   29.95S FOG
MADISON        CLOUDY    55  55 100 SE15      29.96S FOG
WILLMAR        FOG       55  55 100 SE15      30.02R VSB 1
$$
MNZ033>034-036-042>043-049>051-058-059-061200-
   Central Minnesota

CITY           SKY/WX    TMP DP  RH WIND       PRES   REMARKS
ST CLOUD       CLOUDY    55  54  96 E7        30.04S FOG
SAUK CENTRE    CLOUDY    54  53  97 SE10      30.02F FOG
PAYNESVILLE    CLOUDY    52  52 100 E14       30.02F FOG
AITKIN         CLOUDY    57  48  72 SE6       30.04F
PINE RIVER     CLOUDY    55  52  88 SE10      30.06F
BRAINERD       MOCLDY    54  51  90 SE6       30.04F
STAPLES        CLOUDY    55  52  88 SE9       30.02S
LONG PRAIRIE   CLOUDY    54  52  94 E9        30.02S FOG
LITTLE FALLS   CLOUDY    54  52  94 SE8       30.04S FOG
LITCHFIELD     CLOUDY    55  55 100 SE15      30.03S FOG
BUFFALO        CLOUDY    55  53  92 E8        30.05F FOG
MAPLE LAKE     CLOUDY    56  55  97 E7        30.05F FOG
$$
MNZ037-044-045-052-053-061200-
   East Central Minnesota

CITY           SKY/WX    TMP DP  RH WIND       PRES   REMARKS
PRINCETON      CLOUDY    55  54  94 E7        30.06S FOG
MORA           CLOUDY    52  48  87 E7        30.09F
CAMBRIDGE      CLOUDY    55  46  71 SE6       30.06S
RUSH CITY      CLOUDY    53  50  88 E5        30.08F
MOOSE LAKE     CLOUDY    45  41  87 NE3       30.08S
HINCKLEY       CLOUDY    54  50  87 E6        30.09S
CLOQUET        CLOUDY    43  39  87 E5        30.10F
MCGREGOR       CLOUDY    54  46  76 SE8       30.07F
$$
MNZ071>073-080-081-089-090-097-098-061200-
   Southwest Minnesota

CITY           SKY/WX    TMP DP  RH WIND       PRES   REMARKS
MONTEVIDEO     CLOUDY    55  55 100 S15       29.98F FOG
GRANITE FALLS  FOG       55  55  98 E10       30.00F VSB 1
CANBY          CLOUDY    57  55  95 SE13      29.96F FOG
MARSHALL       CLOUDY    57  52  82 SE12      29.97S
REDWOOD FALLS  FOG       56  55  97 SE13      30.00S VSB 1/2
OLIVIA         FOG       54  52  94 SE14      30.00S VSB 3/4
PIPESTONE      CLOUDY    61  59  94 SE15G21   29.94S
WORTHINGTON    CLOUDY    61  57  88 SE14      29.97F
JACKSON        FOG       59  57  94 SE10      30.00S VSB 1/2
TRACY          CLOUDY    58  58  98 SE10      29.98S FOG
SLAYTON        FOG       58  58 100 SE14      29.98S VSB 1/2
$$
MNZ065>067-074>077-082>085-091>093-061200-
   South Central Minnesota

CITY           SKY/WX    TMP DP  RH WIND       PRES   REMARKS
MANKATO        CLOUDY    55  55 100 SE15      30.04S
NEW ULM        CLOUDY    55  55 100 SE13      30.02S FOG
ST JAMES       CLOUDY    57  57 100 SE13      30.02S FOG
FAIRMONT       CLOUDY    57  54  88 SE14      30.00F
GLENCOE        FOG       56  56 100 E12       30.03S VSB 3/4
FARIBAULT      CLOUDY    55  55 100 SE8       30.06S FOG
OWATONNA       CLOUDY    55  54  94 SE17      30.05S FOG
WASECA         CLOUDY    55  54  94 SE12G18   30.06R FOG
ALBERT LEA     FOG       55  55 100 SE13      30.06R VSB 3/4
$$
MNZ078>079-086>088-094>096-061200-
   Southeast Minnesota

CITY           SKY/WX    TMP DP  RH WIND       PRES   REMARKS
ROCHESTER      FOG       54  54 100 SE14      30.09S VSB 1/4
RED WING       CLOUDY    55  54  94 SE10      30.08R FOG
STANTON        CLOUDY    56  54  92 SE6       30.06S FOG
DODGE CENTER   FOG       55  54  94 SE12      30.08R VSB 1/4
WINONA         CLOUDY    54  52  94 SE8       30.11S FOG
AUSTIN         LGT RAIN  54  54 100 SE7       30.07S VSB 1/2
PRESTON        FOG       53  52  97 SE12      30.10S VSB 1/4
$$
ABBREVIATIONS USED IN REMARKS
   TC - TEMPERATURES IN CELSIUS
  WCI - WIND CHILL INDEX
   HX - HEAT INDEX
  VSB - VISIBILITY
$$


USA.gov is the U.S. government's official web portal to all federal, state and local government web resources and services.